Valley City, ND

9:02 AM CST on December 07, 2019 (GMT -0600)
Valley City

Weather History for KBAC - October, 2019

Change the Weather History Date:

Thursday, October 10, 2019

  Actual Average (KJMS) Record (KJMS)
Temperature  
Mean Temperature 32 °F -  
Max Temperature 35 °F 59 °F 88 °F (2015)
Min Temperature 30 °F 35 °F 11 °F (1935)
Degree Days  
Heating Degree Days 32    
Moisture  
Dew Point 32 °F    
Average Humidity 100    
Maximum Humidity 100    
Minimum Humidity 100    
Precipitation  
Precipitation 0.00 in - - ()
Sea Level Pressure  
Sea Level Pressure 29.96 in    
Wind  
Wind Speed 19 mph (NNW)    
Max Wind Speed 30 mph    
Max Gust Speed 39 mph    
Visibility 3 miles    
Events Rain , Snow    
Averages and records for this station are not official NWS values.
T = Trace of Precipitation, MM = Missing Value Source: NWS Daily Summary

Daily Weather History Graph

Daily Weather History Graph

Search for Another Location

Airport or City:

Astronomy

Oct. 10, 2019 Rise Set
Actual Time 7:42 AM CDT 6:54 PM CDT
Civil Twilight 7:12 AM CDT 7:24 PM CDT
Nautical Twilight 6:37 AM CDT 8:00 PM CDT
Astronomical Twilight 6:01 AM CDT 8:35 PM CDT
Moon 6:12 PM CDT (10/10) 4:09 AM CDT (10/10)
Length of Visible Light 12h 12m
Length of Day
11h 11m
Waxing Gibbous, 91% of the Moon is Illuminated
Oct 10
Waxing Gibbous
Oct 13
Full
Oct 21
Last Quarter
Oct 27
New
Nov 4
First Quarter

Hourly Weather History & Observations

Time (CDT) Temp. Windchill Dew Point Humidity Pressure Visibility Wind Dir Wind Speed Gust Speed Precip Events Conditions
12:15 AM 35.6 °F 25.9 °F 35.6 °F 100% 30.00 in 2.0 mi North 16.1 mph 24.2 mph N/A   Light Drizzle
12:35 AM 35.6 °F 24.8 °F 35.6 °F 100% 30.01 in 1.5 mi North 19.6 mph - N/A Rain Light Rain
12:55 AM 35.6 °F 24.8 °F 35.6 °F 100% 30.01 in 1.8 mi North 19.6 mph 26.5 mph N/A Rain Light Rain
1:15 AM 35.6 °F 25.5 °F 35.6 °F 100% 30.01 in 2.5 mi North 17.3 mph 24.2 mph N/A   Light Drizzle
1:35 AM 35.6 °F 26.6 °F 35.6 °F 100% 30.02 in 1.8 mi North 13.8 mph 23.0 mph N/A Rain Light Rain
1:55 AM 35.6 °F 25.9 °F 35.6 °F 100% 30.01 in 2.0 mi North 16.1 mph - N/A Rain Light Rain
2:15 AM 33.8 °F 22.8 °F 33.8 °F 100% 30.01 in 2.5 mi North 18.4 mph 24.2 mph N/A   Overcast
2:35 AM 33.8 °F 23.9 °F 33.8 °F 100% 30.01 in 2.0 mi North 15.0 mph - N/A Rain Rain
2:55 AM 33.8 °F 23.5 °F 33.8 °F 100% 30.01 in 3.0 mi North 16.1 mph 25.3 mph N/A Rain Light Rain
3:15 AM 33.8 °F 24.3 °F 33.8 °F 100% 30.00 in 4.0 mi North 13.8 mph 24.2 mph N/A Rain Light Rain
3:35 AM 33.8 °F 23.2 °F 33.8 °F 100% 30.02 in 6.0 mi North 17.3 mph 24.2 mph N/A Rain Light Rain
3:55 AM 33.8 °F 23.9 °F 33.8 °F 100% 30.02 in 4.0 mi North 15.0 mph 21.9 mph N/A Rain Light Rain
4:15 AM 33.8 °F 22.8 °F 33.8 °F 100% 30.02 in 2.0 mi North 18.4 mph 25.3 mph N/A   Overcast
4:35 AM 33.8 °F 22.8 °F 33.8 °F 100% 30.02 in 2.0 mi North 18.4 mph - N/A Rain Light Rain
4:55 AM 33.8 °F 23.9 °F 33.8 °F 100% 30.00 in 2.0 mi North 15.0 mph 26.5 mph N/A Rain Light Rain
5:15 AM 33.8 °F 22.5 °F 33.8 °F 100% 29.98 in 2.5 mi North 19.6 mph 27.6 mph N/A   Light Drizzle
5:35 AM 33.8 °F 22.8 °F 33.8 °F 100% 29.97 in 8.0 mi North 18.4 mph 28.8 mph N/A   Light Drizzle
5:55 AM 33.8 °F 22.2 °F 33.8 °F 100% 29.98 in 10.0 mi North 20.7 mph 29.9 mph N/A   Overcast
6:15 AM 33.8 °F 22.2 °F 33.8 °F 100% 29.96 in 3.0 mi North 20.7 mph 29.9 mph N/A   Overcast
6:35 AM 33.8 °F 22.5 °F 33.8 °F 100% 29.97 in 7.0 mi North 19.6 mph 27.6 mph N/A Rain Light Rain
6:55 AM 33.8 °F 24.8 °F 33.8 °F 100% 29.97 in 9.0 mi North 12.7 mph 27.6 mph N/A   Light Drizzle
7:15 AM 33.8 °F 21.9 °F 33.8 °F 100% 29.95 in 10.0 mi NNE 21.9 mph 31.1 mph N/A   Light Drizzle
7:35 AM 33.8 °F 23.5 °F 33.8 °F 100% 29.97 in 6.0 mi North 16.1 mph 25.3 mph N/A Rain Light Rain
7:55 AM 33.8 °F 21.3 °F 33.8 °F 100% 29.95 in 3.0 mi NNE 24.2 mph 29.9 mph N/A Rain Heavy Rain
8:15 AM 33.8 °F 25.3 °F 33.8 °F 100% 30.05 in 5.0 mi NW 11.5 mph 23.0 mph N/A Rain Light Rain
8:35 AM 32.0 °F 22.5 °F 32.0 °F 100% 30.07 in 1.0 mi NW 12.7 mph - N/A Rain Heavy Rain
8:55 AM 32.0 °F 21.6 °F 32.0 °F 100% 30.07 in 0.8 mi NW 15.0 mph - N/A   Mostly Cloudy
9:15 AM 32.0 °F 21.2 °F 32.0 °F 100% 30.04 in 0.8 mi NW 16.1 mph 24.2 mph N/A Snow Light Snow
9:35 AM 32.0 °F 19.5 °F 32.0 °F 100% 30.00 in 0.5 mi NNW 21.9 mph - N/A Snow Light Snow
9:55 AM 32.0 °F 21.2 °F 32.0 °F 100% 29.97 in 0.2 mi North 16.1 mph 24.2 mph N/A   Overcast
10:15 AM 32.0 °F 20.5 °F 32.0 °F 100% 29.97 in 1.0 mi North 18.4 mph 25.3 mph N/A   Mostly Cloudy
10:35 AM 32.0 °F 20.8 °F 32.0 °F 100% 29.97 in 3.0 mi NNW 17.3 mph 24.2 mph N/A Rain Light Rain
10:55 AM 32.0 °F 20.1 °F 32.0 °F 100% 29.96 in 3.0 mi North 19.6 mph 28.8 mph N/A Rain Light Rain
11:15 AM 32.0 °F 19.8 °F 32.0 °F 100% 29.98 in 5.0 mi North 20.7 mph - N/A Rain Light Rain
11:35 AM 32.0 °F 20.5 °F 32.0 °F 100% 29.97 in 3.0 mi North 18.4 mph - N/A Rain Light Rain
11:55 AM 32.0 °F 19.8 °F 32.0 °F 100% 29.99 in 1.8 mi NNW 20.7 mph 27.6 mph N/A   Scattered Clouds
12:15 PM 32.0 °F 21.2 °F 32.0 °F 100% 29.99 in 2.0 mi North 16.1 mph 24.2 mph N/A Rain Light Rain
12:35 PM 32.0 °F 20.5 °F 32.0 °F 100% 29.98 in 2.0 mi North 18.4 mph - N/A Rain Light Rain
12:55 PM 32.0 °F 21.2 °F 32.0 °F 100% 29.98 in 1.8 mi NNW 16.1 mph 23.0 mph N/A Rain Rain
1:15 PM 32.0 °F 19.8 °F 32.0 °F 100% 29.95 in 1.0 mi North 20.7 mph 28.8 mph N/A Snow Light Snow
1:35 PM 32.0 °F 20.1 °F 32.0 °F 100% 29.95 in 0.2 mi NNW 19.6 mph 26.5 mph N/A Snow Light Snow
1:55 PM 32.0 °F 19.8 °F 32.0 °F 100% 29.94 in 0.5 mi NNW 20.7 mph 29.9 mph N/A Snow Light Snow
2:15 PM 32.0 °F 20.1 °F 32.0 °F 100% 29.94 in 1.0 mi North 19.6 mph 31.1 mph N/A Snow Light Snow
2:55 PM 32.0 °F 20.1 °F 32.0 °F 100% 29.92 in 0.2 mi North 19.6 mph 27.6 mph N/A Snow Light Snow
3:15 PM 32.0 °F 19.2 °F 32.0 °F 100% 29.93 in 0.2 mi North 23.0 mph 29.9 mph N/A Snow Snow
3:55 PM 32.0 °F 21.2 °F 32.0 °F 100% 29.93 in 0.5 mi NNW 16.1 mph 26.5 mph N/A Snow Light Snow
4:55 PM 32.0 °F 18.4 °F 32.0 °F 100% 29.91 in 1.0 mi North 26.5 mph 33.4 mph N/A Snow Light Snow
5:15 PM 32.0 °F 18.9 °F 32.0 °F 100% 29.91 in 1.5 mi North 24.2 mph 29.9 mph N/A   Scattered Clouds
5:35 PM 32.0 °F 19.5 °F 32.0 °F 100% 29.92 in 1.8 mi NNW 21.9 mph 29.9 mph N/A   Scattered Clouds
5:55 PM 32.0 °F 19.2 °F 32.0 °F 100% 29.91 in 1.2 mi North 23.0 mph 28.8 mph N/A Snow Light Snow
6:15 PM 32.0 °F 19.2 °F 32.0 °F 100% 29.92 in 0.8 mi NNW 23.0 mph 32.2 mph N/A Snow Light Snow
6:35 PM - - - N/A% 29.91 in 1.2 mi North 25.3 mph 32.2 mph N/A   Unknown
6:55 PM 32.0 °F 18.6 °F 32.0 °F 100% 29.90 in 1.2 mi North 25.3 mph 32.2 mph N/A Snow Light Snow
7:15 PM 30.2 °F 16.8 °F 30.2 °F 100% 29.93 in 1.2 mi NNW 23.0 mph 32.2 mph N/A   Overcast
7:35 PM 30.2 °F 16.8 °F 30.2 °F 100% 29.92 in 2.0 mi NNW 23.0 mph - N/A Snow Light Snow
7:55 PM 30.2 °F 16.5 °F 30.2 °F 100% 29.91 in 2.5 mi NNW 24.2 mph 31.1 mph N/A Snow Light Snow
8:15 PM 30.2 °F 15.9 °F 30.2 °F 100% 29.91 in 2.5 mi NNW 26.5 mph 35.7 mph N/A Snow Light Snow
8:35 PM 30.2 °F 16.2 °F 30.2 °F 100% 29.90 in 3.0 mi NNW 25.3 mph 39.1 mph N/A Snow Light Snow
8:55 PM 30.2 °F 16.2 °F 30.2 °F 100% 29.91 in 2.5 mi NNW 25.3 mph - N/A Rain Light Freezing Rain
9:15 PM 30.2 °F 15.7 °F 30.2 °F 100% 29.89 in 1.8 mi NNW 27.6 mph 39.1 mph N/A Snow Light Snow
9:35 PM 30.2 °F 17.1 °F 30.2 °F 100% 29.90 in 1.8 mi NNW 21.9 mph 31.1 mph N/A Rain Light Freezing Rain
9:55 PM 30.2 °F 16.8 °F 30.2 °F 100% 29.90 in 2.0 mi NNW 23.0 mph 36.8 mph N/A Snow Light Snow
10:15 PM 30.2 °F 15.2 °F 30.2 °F 100% 29.88 in 2.0 mi NNW 29.9 mph 38.0 mph N/A Snow Light Snow
10:35 PM 30.2 °F 16.2 °F 30.2 °F 100% 29.87 in 1.8 mi NNW 25.3 mph 35.7 mph N/A Snow Light Snow
10:55 PM 30.2 °F 16.8 °F 30.2 °F 100% 29.88 in 2.5 mi NNW 23.0 mph 32.2 mph N/A Rain Light Freezing Rain
11:15 PM 30.2 °F 16.8 °F 30.2 °F 100% 29.87 in 4.0 mi NNW 23.0 mph 32.2 mph N/A   Light Freezing Rain
11:35 PM 30.2 °F 16.8 °F 30.2 °F 100% 29.87 in 3.0 mi NNW 23.0 mph 34.5 mph N/A   Overcast
11:55 PM 30.2 °F 16.2 °F 30.2 °F 100% 29.86 in 3.0 mi NNW 25.3 mph - N/A   Overcast